Time,TemperatureF,DewpointF,PressureIn,WindDirection,WindDirectionDegrees,WindSpeedMPH,WindSpeedGustMPH,Humidity,HourlyPrecipIn,Conditions,Clouds,dailyrainin,SoftwareType,DateUTC
2016-02-11 00:04:00,14.7,7.9,30.04,North,0,0.0,0.0,74,0.00,CLR,,0.00,WeatherDisplay:10.37,2016-02-11 05:04:00,
2016-02-11 00:09:00,14.7,7.9,30.05,North,0,0.0,0.0,74,0.00,CLR,,0.00,WeatherDisplay:10.37,2016-02-11 05:09:00,
2016-02-11 00:14:00,14.7,8.2,30.05,North,0,0.0,0.0,75,0.00,CLR,,0.00,WeatherDisplay:10.37,2016-02-11 05:14:00,
2016-02-11 00:19:00,14.7,8.2,30.05,North,0,0.0,0.0,75,0.00,CLR,,0.00,WeatherDisplay:10.37,2016-02-11 05:19:00,
2016-02-11 00:24:00,14.7,8.2,30.05,North,0,0.0,0.0,75,0.00,CLR,,0.00,WeatherDisplay:10.37,2016-02-11 05:24:00,
2016-02-11 00:29:00,14.7,7.9,30.04,North,0,0.0,0.0,74,0.00,CLR,,0.00,WeatherDisplay:10.37,2016-02-11 05:29:00,
2016-02-11 00:34:00,14.7,7.9,30.05,North,0,0.0,0.0,74,0.00,CLR,,0.00,WeatherDisplay:10.37,2016-02-11 05:34:00,
2016-02-11 00:44:00,14.9,8.1,30.04,North,0,0.0,0.0,74,0.00,CLR,,0.00,WeatherDisplay:10.37,2016-02-11 05:44:00,
2016-02-11 00:49:00,14.9,8.4,30.05,North,0,0.0,0.0,75,0.00,CLR,,0.00,WeatherDisplay:10.37,2016-02-11 05:49:00,
2016-02-11 00:54:00,15.1,8.6,30.04,North,0,0.0,0.0,75,0.00,CLR,,0.00,WeatherDisplay:10.37,2016-02-11 05:54:00,
2016-02-11 00:59:00,15.1,8.6,30.05,North,0,0.0,0.0,75,0.00,CLR,,0.00,WeatherDisplay:10.37,2016-02-11 05:59:00,
2016-02-11 01:04:00,15.1,8.6,30.04,North,0,0.0,0.0,75,0.00,CLR,,0.00,WeatherDisplay:10.37,2016-02-11 06:04:00,
2016-02-11 01:09:00,15.1,8.6,30.04,North,0,0.0,0.0,75,0.00,CLR,,0.00,WeatherDisplay:10.37,2016-02-11 06:09:00,
2016-02-11 01:14:00,15.1,8.6,30.04,North,0,0.0,0.0,75,0.00,CLR,,0.00,WeatherDisplay:10.37,2016-02-11 06:14:00,
2016-02-11 01:19:00,14.9,8.4,30.05,North,0,0.0,0.0,75,0.00,CLR,,0.00,WeatherDisplay:10.37,2016-02-11 06:19:00,
2016-02-11 01:24:00,14.7,8.2,30.05,North,0,0.0,0.0,75,0.00,CLR,,0.00,WeatherDisplay:10.37,2016-02-11 06:24:00,
2016-02-11 01:29:00,14.7,8.2,30.05,North,0,0.0,0.0,75,0.00,CLR,,0.00,WeatherDisplay:10.37,2016-02-11 06:29:00,
2016-02-11 01:34:00,14.5,8.4,30.05,North,0,0.0,0.0,76,0.00,CLR,,0.00,WeatherDisplay:10.37,2016-02-11 06:34:00,
2016-02-11 01:39:00,14.5,8.4,30.05,North,0,0.0,0.0,76,0.00,CLR,,0.00,WeatherDisplay:10.37,2016-02-11 06:39:00,
2016-02-11 01:44:00,14.4,8.2,30.05,North,0,0.0,0.0,76,0.00,CLR,,0.00,WeatherDisplay:10.37,2016-02-11 06:44:00,
2016-02-11 01:49:00,14.4,8.5,30.05,North,0,0.0,0.0,77,0.00,CLR,,0.00,WeatherDisplay:10.37,2016-02-11 06:49:00,
2016-02-11 01:54:00,14.4,8.5,30.04,North,0,0.0,0.0,77,0.00,CLR,,0.00,WeatherDisplay:10.37,2016-02-11 06:54:00,
2016-02-11 01:59:00,14.4,8.2,30.05,North,0,0.0,0.0,76,0.00,CLR,,0.00,WeatherDisplay:10.37,2016-02-11 06:59:00,
2016-02-11 02:04:00,14.4,8.5,30.05,North,0,0.0,0.0,77,0.00,CLR,,0.00,WeatherDisplay:10.37,2016-02-11 07:04:00,
2016-02-11 02:09:00,14.4,8.5,30.04,North,0,0.0,0.0,77,0.00,CLR,,0.00,WeatherDisplay:10.37,2016-02-11 07:09:00,
2016-02-11 02:14:00,14.4,8.5,30.05,North,0,0.0,0.0,77,0.00,CLR,,0.00,WeatherDisplay:10.37,2016-02-11 07:14:00,
2016-02-11 02:19:00,14.2,8.3,30.04,North,0,0.0,0.0,77,0.00,CLR,,0.00,WeatherDisplay:10.37,2016-02-11 07:19:00,
2016-02-11 02:24:00,14.2,8.3,30.05,North,0,0.0,0.0,77,0.00,CLR,,0.00,WeatherDisplay:10.37,2016-02-11 07:24:00,
2016-02-11 02:29:00,14.2,8.3,30.05,North,0,0.0,0.0,77,0.00,CLR,,0.00,WeatherDisplay:10.37,2016-02-11 07:29:00,
2016-02-11 02:34:00,14.2,8.6,30.05,North,0,0.0,0.0,78,0.00,CLR,,0.00,WeatherDisplay:10.37,2016-02-11 07:34:00,
2016-02-11 02:39:00,14.0,8.4,30.05,North,0,0.0,0.0,78,0.00,CLR,,0.00,WeatherDisplay:10.37,2016-02-11 07:39:00,
2016-02-11 02:44:00,14.0,8.4,30.05,North,0,0.0,0.0,78,0.00,CLR,,0.00,WeatherDisplay:10.37,2016-02-11 07:44:00,
2016-02-11 02:49:00,14.0,8.4,30.05,North,0,0.0,0.0,78,0.00,CLR,,0.00,WeatherDisplay:10.37,2016-02-11 07:49:00,
2016-02-11 02:54:00,13.8,8.2,30.05,North,0,0.0,0.0,78,0.00,CLR,,0.00,WeatherDisplay:10.37,2016-02-11 07:54:00,
2016-02-11 03:04:00,13.6,8.3,30.05,North,0,0.0,0.0,79,0.00,CLR,,0.00,WeatherDisplay:10.37,2016-02-11 08:04:00,
2016-02-11 03:09:00,13.5,8.2,30.05,North,0,0.0,0.0,79,0.00,CLR,,0.00,WeatherDisplay:10.37,2016-02-11 08:09:00,
2016-02-11 03:14:00,13.3,8.0,30.05,North,0,0.0,0.0,79,0.00,CLR,,0.00,WeatherDisplay:10.37,2016-02-11 08:14:00,
2016-02-11 03:19:00,13.1,7.8,30.05,North,0,0.0,0.0,79,0.00,CLR,,0.00,WeatherDisplay:10.37,2016-02-11 08:19:00,
2016-02-11 03:24:00,12.9,7.6,30.05,North,0,0.0,0.0,79,0.00,CLR,,0.00,WeatherDisplay:10.37,2016-02-11 08:24:00,
2016-02-11 03:29:00,12.7,7.5,30.04,North,0,0.0,0.0,79,0.00,CLR,,0.00,WeatherDisplay:10.37,2016-02-11 08:29:00,
2016-02-11 03:39:00,12.6,7.6,30.04,North,0,0.0,0.0,80,0.00,CLR,,0.00,WeatherDisplay:10.37,2016-02-11 08:39:00,
2016-02-11 03:44:00,12.6,7.6,30.05,North,0,0.0,0.0,80,0.00,CLR,,0.00,WeatherDisplay:10.37,2016-02-11 08:44:00,
2016-02-11 03:49:00,12.7,7.7,30.04,North,0,0.0,0.0,80,0.00,CLR,,0.00,WeatherDisplay:10.37,2016-02-11 08:49:00,
2016-02-11 03:54:00,12.9,8.2,30.04,North,0,0.0,0.0,81,0.00,CLR,,0.00,WeatherDisplay:10.37,2016-02-11 08:54:00,
2016-02-11 03:59:00,13.3,8.8,30.05,North,0,0.0,0.0,82,0.00,CLR,,0.00,WeatherDisplay:10.37,2016-02-11 08:59:00,
2016-02-11 04:04:00,13.5,9.0,30.05,North,0,0.0,0.0,82,0.00,CLR,,0.00,WeatherDisplay:10.37,2016-02-11 09:04:00,
2016-02-11 04:09:00,13.6,8.9,30.05,North,0,0.0,0.0,81,0.00,CLR,,0.00,WeatherDisplay:10.37,2016-02-11 09:09:00,
2016-02-11 04:14:00,13.8,9.1,30.05,North,0,0.0,0.0,81,0.00,CLR,,0.00,WeatherDisplay:10.37,2016-02-11 09:14:00,
2016-02-11 04:24:00,14.2,9.4,30.05,North,0,0.0,0.0,81,0.00,CLR,,0.00,WeatherDisplay:10.37,2016-02-11 09:24:00,
2016-02-11 04:29:00,14.2,9.1,30.06,North,0,0.0,0.0,80,0.00,CLR,,0.00,WeatherDisplay:10.37,2016-02-11 09:29:00,
2016-02-11 04:34:00,14.4,9.3,30.06,North,0,0.0,0.0,80,0.00,CLR,,0.00,WeatherDisplay:10.37,2016-02-11 09:34:00,
2016-02-11 04:39:00,14.4,9.3,30.06,North,0,0.0,0.0,80,0.00,CLR,,0.00,WeatherDisplay:10.37,2016-02-11 09:39:00,
2016-02-11 04:54:00,14.4,9.3,30.06,North,0,0.0,0.0,80,0.00,CLR,,0.00,WeatherDisplay:10.37,2016-02-11 09:54:00,
2016-02-11 04:59:00,14.4,9.3,30.06,North,0,0.0,0.0,80,0.00,CLR,,0.00,WeatherDisplay:10.37,2016-02-11 09:59:00,
2016-02-11 05:04:00,14.4,9.3,30.07,North,0,0.0,0.0,80,0.00,CLR,,0.00,WeatherDisplay:10.37,2016-02-11 10:04:00,
2016-02-11 05:09:00,14.4,9.0,30.07,North,0,0.0,0.0,79,0.00,CLR,,0.00,WeatherDisplay:10.37,2016-02-11 10:09:00,
2016-02-11 05:19:00,14.4,9.3,30.07,North,0,0.0,0.0,80,0.00,CLR,,0.00,WeatherDisplay:10.37,2016-02-11 10:19:00,
2016-02-11 05:29:00,14.2,9.1,30.08,North,0,0.0,0.0,80,0.00,CLR,,0.00,WeatherDisplay:10.37,2016-02-11 10:29:00,
2016-02-11 05:34:00,14.2,8.9,30.08,North,0,0.0,0.0,79,0.00,CLR,,0.00,WeatherDisplay:10.37,2016-02-11 10:34:00,
2016-02-11 05:39:00,14.2,8.9,30.08,North,0,0.0,0.0,79,0.00,CLR,,0.00,WeatherDisplay:10.37,2016-02-11 10:39:00,
2016-02-11 05:44:00,14.2,9.1,30.08,North,0,0.0,0.0,80,0.00,CLR,,0.00,WeatherDisplay:10.37,2016-02-11 10:44:00,
2016-02-11 05:49:00,14.2,9.1,30.08,North,0,0.0,0.0,80,0.00,CLR,,0.00,WeatherDisplay:10.37,2016-02-11 10:49:00,
2016-02-11 05:54:00,14.2,9.1,30.08,North,0,0.0,0.0,80,0.00,CLR,,0.00,WeatherDisplay:10.37,2016-02-11 10:54:00,
2016-02-11 05:59:00,14.2,9.1,30.08,North,0,0.0,0.0,80,0.00,CLR,,0.00,WeatherDisplay:10.37,2016-02-11 10:59:00,
2016-02-11 06:04:00,14.0,9.0,30.08,North,0,0.0,0.0,80,0.00,CLR,,0.00,WeatherDisplay:10.37,2016-02-11 11:04:00,
2016-02-11 06:09:00,14.2,9.1,30.09,North,0,0.0,0.0,80,0.00,CLR,,0.00,WeatherDisplay:10.37,2016-02-11 11:09:00,
2016-02-11 06:24:00,13.8,8.8,30.09,North,0,0.0,0.0,80,0.00,CLR,,0.00,WeatherDisplay:10.37,2016-02-11 11:24:00,
2016-02-11 06:29:00,13.8,9.1,30.09,North,0,0.0,0.0,81,0.00,CLR,,0.00,WeatherDisplay:10.37,2016-02-11 11:29:00,
2016-02-11 06:34:00,13.8,8.8,30.09,North,0,0.0,0.0,80,0.00,CLR,,0.00,WeatherDisplay:10.37,2016-02-11 11:34:00,
2016-02-11 06:39:00,13.8,9.1,30.09,North,0,0.0,0.0,81,0.00,CLR,,0.00,WeatherDisplay:10.37,2016-02-11 11:39:00,
2016-02-11 06:44:00,14.0,9.2,30.10,North,0,0.0,0.0,81,0.00,CLR,,0.00,WeatherDisplay:10.37,2016-02-11 11:44:00,
2016-02-11 06:49:00,13.8,9.1,30.11,North,0,0.0,0.0,81,0.00,CLR,,0.00,WeatherDisplay:10.37,2016-02-11 11:49:00,
2016-02-11 06:54:00,13.6,8.6,30.11,North,0,0.0,0.0,80,0.00,CLR,,0.00,WeatherDisplay:10.37,2016-02-11 11:54:00,
2016-02-11 06:59:00,13.5,8.7,30.11,North,0,0.0,0.0,81,0.00,CLR,,0.00,WeatherDisplay:10.37,2016-02-11 11:59:00,
2016-02-11 07:04:00,13.3,8.5,30.11,North,0,0.0,0.0,81,0.00,CLR,,0.00,WeatherDisplay:10.37,2016-02-11 12:04:00,
2016-02-11 07:09:00,13.1,8.4,30.11,North,0,0.0,0.0,81,0.00,CLR,,0.00,WeatherDisplay:10.37,2016-02-11 12:09:00,
2016-02-11 07:14:00,12.7,8.0,30.12,North,0,0.0,0.0,81,0.00,CLR,,0.00,WeatherDisplay:10.37,2016-02-11 12:14:00,
2016-02-11 07:19:00,12.4,7.9,30.12,North,0,0.0,0.0,82,0.00,CLR,,0.00,WeatherDisplay:10.37,2016-02-11 12:19:00,
2016-02-11 07:24:00,12.0,7.6,30.12,North,0,0.0,0.0,82,0.00,CLR,,0.00,WeatherDisplay:10.37,2016-02-11 12:24:00,
2016-02-11 07:29:00,11.7,7.2,30.12,North,0,0.0,0.0,82,0.00,CLR,,0.00,WeatherDisplay:10.37,2016-02-11 12:29:00,
2016-02-11 07:34:00,11.5,7.1,30.13,North,0,0.0,0.0,82,0.00,CLR,,0.00,WeatherDisplay:10.37,2016-02-11 12:34:00,
2016-02-11 07:39:00,11.1,7.0,30.13,North,0,0.0,0.0,83,0.00,CLR,,0.00,WeatherDisplay:10.37,2016-02-11 12:39:00,
2016-02-11 07:44:00,10.9,6.8,30.14,North,0,0.0,0.0,83,0.00,CLR,,0.00,WeatherDisplay:10.37,2016-02-11 12:44:00,
2016-02-11 07:49:00,10.8,6.6,30.14,North,0,0.0,0.0,83,0.00,CLR,,0.00,WeatherDisplay:10.37,2016-02-11 12:49:00,
2016-02-11 07:54:00,10.6,6.7,30.14,North,0,0.0,0.0,84,0.00,CLR,,0.00,WeatherDisplay:10.37,2016-02-11 12:54:00,
2016-02-11 07:59:00,10.6,6.7,30.15,North,0,0.0,0.0,84,0.00,CLR,,0.00,WeatherDisplay:10.37,2016-02-11 12:59:00,
2016-02-11 08:04:00,10.9,7.1,30.15,North,0,0.0,0.0,84,0.00,CLR,,0.00,WeatherDisplay:10.37,2016-02-11 13:04:00,
2016-02-11 08:09:00,11.7,8.0,30.15,North,0,0.0,0.0,85,0.00,CLR,,0.00,WeatherDisplay:10.37,2016-02-11 13:09:00,
2016-02-11 08:14:00,12.6,8.9,30.15,North,0,0.0,0.0,85,0.00,CLR,,0.00,WeatherDisplay:10.37,2016-02-11 13:14:00,
2016-02-11 08:19:00,13.3,9.6,30.16,North,0,0.0,0.0,85,0.00,CLR,,0.00,WeatherDisplay:10.37,2016-02-11 13:19:00,
2016-02-11 08:24:00,13.8,10.1,30.16,North,0,0.0,0.0,85,0.00,CLR,,0.00,WeatherDisplay:10.37,2016-02-11 13:24:00,
2016-02-11 08:29:00,13.8,9.9,30.16,North,0,0.0,0.0,84,0.00,CLR,,0.00,WeatherDisplay:10.37,2016-02-11 13:29:00,
2016-02-11 08:34:00,14.2,10.2,30.16,North,0,0.0,0.0,84,0.00,CLR,,0.00,WeatherDisplay:10.37,2016-02-11 13:34:00,
2016-02-11 08:39:00,14.4,10.1,30.16,North,0,0.0,0.0,83,0.00,CLR,,0.00,WeatherDisplay:10.37,2016-02-11 13:39:00,
2016-02-11 08:49:00,14.7,10.2,30.16,North,0,0.0,0.0,82,0.00,CLR,,0.00,WeatherDisplay:10.37,2016-02-11 13:49:00,
2016-02-11 08:54:00,15.3,10.5,30.16,North,0,0.0,0.0,81,0.00,CLR,,0.00,WeatherDisplay:10.37,2016-02-11 13:54:00,
2016-02-11 08:59:00,15.6,10.8,30.16,North,0,0.0,0.0,81,0.00,CLR,,0.00,WeatherDisplay:10.37,2016-02-11 13:59:00,
2016-02-11 09:04:00,15.4,10.1,30.17,North,0,0.0,0.0,79,0.00,CLR,,0.00,WeatherDisplay:10.37,2016-02-11 14:04:00,
2016-02-11 09:09:00,15.4,9.8,30.17,North,0,0.0,0.0,78,0.00,CLR,,0.00,WeatherDisplay:10.37,2016-02-11 14:09:00,
2016-02-11 09:19:00,16.0,10.0,30.18,North,0,0.0,0.0,77,0.00,CLR,,0.00,WeatherDisplay:10.37,2016-02-11 14:19:00,
2016-02-11 09:24:00,16.2,9.9,30.18,North,0,0.0,0.0,76,0.00,CLR,,0.00,WeatherDisplay:10.37,2016-02-11 14:24:00,
2016-02-11 09:29:00,16.5,10.3,30.18,North,0,0.0,0.0,76,0.00,CLR,,0.00,WeatherDisplay:10.37,2016-02-11 14:29:00,
2016-02-11 09:34:00,16.9,10.3,30.18,North,0,0.0,0.0,75,0.00,CLR,,0.00,WeatherDisplay:10.37,2016-02-11 14:34:00,
2016-02-11 09:39:00,17.1,10.2,30.18,North,0,0.0,0.0,74,0.00,CLR,,0.00,WeatherDisplay:10.37,2016-02-11 14:39:00,
2016-02-11 09:44:00,17.4,10.5,30.18,North,0,0.0,0.0,74,0.00,CLR,,0.00,WeatherDisplay:10.37,2016-02-11 14:44:00,
2016-02-11 09:49:00,17.8,10.6,30.18,North,0,0.0,0.0,73,0.00,CLR,,0.00,WeatherDisplay:10.37,2016-02-11 14:49:00,
2016-02-11 09:54:00,18.1,10.6,30.18,North,0,0.0,0.0,72,0.00,CLR,,0.00,WeatherDisplay:10.37,2016-02-11 14:54:00,
2016-02-11 09:59:00,18.7,10.5,30.18,North,0,0.0,0.0,70,0.00,CLR,,0.00,WeatherDisplay:10.37,2016-02-11 14:59:00,
2016-02-11 10:14:00,20.3,11.1,30.18,North,0,0.0,0.0,67,0.00,CLR,,0.00,WeatherDisplay:10.37,2016-02-11 15:14:00,
2016-02-11 10:24:00,20.1,9.5,30.19,North,0,0.0,0.0,63,0.00,CLR,,0.00,WeatherDisplay:10.37,2016-02-11 15:24:00,
2016-02-11 10:29:00,20.1,9.5,30.19,North,0,0.0,0.0,63,0.00,CLR,,0.00,WeatherDisplay:10.37,2016-02-11 15:29:00,
2016-02-11 10:34:00,20.5,9.5,30.18,North,0,0.0,0.0,62,0.00,CLR,,0.00,WeatherDisplay:10.37,2016-02-11 15:34:00,
2016-02-11 10:39:00,20.8,9.5,30.19,North,0,0.0,0.0,61,0.00,CLR,,0.00,WeatherDisplay:10.37,2016-02-11 15:39:00,
2016-02-11 10:44:00,21.6,9.8,30.19,North,0,0.0,0.0,60,0.00,CLR,,0.00,WeatherDisplay:10.37,2016-02-11 15:44:00,
2016-02-11 10:49:00,21.9,9.4,30.19,North,0,0.0,0.0,58,0.00,CLR,,0.00,WeatherDisplay:10.37,2016-02-11 15:49:00,
2016-02-11 10:54:00,21.7,8.8,30.19,North,0,0.0,0.0,57,0.00,CLR,,0.00,WeatherDisplay:10.37,2016-02-11 15:54:00,
2016-02-11 10:59:00,21.6,8.7,30.18,North,0,0.0,0.0,57,0.00,CLR,,0.00,WeatherDisplay:10.37,2016-02-11 15:59:00,
2016-02-11 11:04:00,21.9,9.4,30.19,North,0,0.0,0.0,58,0.00,CLR,,0.00,WeatherDisplay:10.37,2016-02-11 16:04:00,
2016-02-11 11:14:00,22.6,9.3,30.19,North,0,0.0,0.0,56,0.00,CLR,,0.00,WeatherDisplay:10.37,2016-02-11 16:14:00,
2016-02-11 11:19:00,22.5,8.3,30.19,North,0,0.0,0.0,54,0.00,CLR,,0.00,WeatherDisplay:10.37,2016-02-11 16:19:00,
2016-02-11 11:24:00,22.1,8.4,30.19,North,0,0.0,0.0,55,0.00,CLR,,0.00,WeatherDisplay:10.37,2016-02-11 16:24:00,
2016-02-11 11:29:00,21.9,8.6,30.19,North,0,0.0,0.0,56,0.00,CLR,,0.00,WeatherDisplay:10.37,2016-02-11 16:29:00,
2016-02-11 11:34:00,22.3,8.9,30.19,North,0,0.0,0.0,56,0.00,CLR,,0.00,WeatherDisplay:10.37,2016-02-11 16:34:00,
2016-02-11 11:39:00,22.6,8.9,30.19,North,0,0.0,0.0,55,0.00,CLR,,0.00,WeatherDisplay:10.37,2016-02-11 16:39:00,
2016-02-11 11:44:00,23.2,9.8,30.19,North,0,0.0,0.0,56,0.00,CLR,,0.00,WeatherDisplay:10.37,2016-02-11 16:44:00,
2016-02-11 11:49:00,23.4,9.6,30.19,North,0,0.0,0.0,55,0.00,CLR,,0.00,WeatherDisplay:10.37,2016-02-11 16:49:00,
2016-02-11 11:54:00,23.4,9.6,30.19,North,0,0.0,0.0,55,0.00,CLR,,0.00,WeatherDisplay:10.37,2016-02-11 16:54:00,
2016-02-11 11:59:00,23.5,8.9,30.19,North,0,0.0,0.0,53,0.00,CLR,,0.00,WeatherDisplay:10.37,2016-02-11 16:59:00,
2016-02-11 12:04:00,23.9,9.2,30.19,North,0,0.0,0.0,53,0.00,CLR,,0.00,WeatherDisplay:10.37,2016-02-11 17:04:00,